sat.trackr.live / text

‹ back to catalog

STARLINK-33750

NORAD 63513 · 2025-071W

PAYLOAD ACTIVE UNKNOWN

§ Identity

Operator
Country
US
Launch date
2025-04-07
Launch site
AFWTR
Launch vehicle
Mass (kg)
RCS (m²)

Purposes: comms

External: N2YO · Heavens-Above · Gunter

§ Orbital elements

Epoch: 2026-09-20T10:06:27.016992Z

Period
94.01 min
Inclination
53.1587°
Eccentricity
0.0001129
Mean motion
15.31722527 rev/d
Perigee alt
469.9 km
Apogee alt
471.4 km
Semi-major
6,848.8 km
B*
3.6170e-4
RAAN
313.9946°
Arg perigee
76.0039°
Mean anomaly
284.1087°
Rev number
8,258

§ Raw data

STARLINK-337501 63513U 25071W   26263.42114603  .00010883  00000+0  36170-3 0  99922 63513  53.1587 313.9946 0001129  76.0039 284.1087 15.31722527 82580

JSON: /api/v1/satellites/63513 · /tle

For live sub-satellite position, see the globe view (requires WebGL).

§ Visibility from observer

Set your observer location to see the next 7 days of passes ≥ 10°. The values pass through the URL so the page stays shareable.

No JS? Fill the form by hand. The geolocation button needs JavaScript.